Theta_e
333 338 340 342 341 348 349 347 348 350 353 352 350 350 346 348 347 349 354 355 354 354 353 348 350 355 349 349 355 349 348 347 345 342 336 336 337 340 341 341 339 341 340
331 336 338 341 340 346 348 347 349 351 351 354 349 349 349 349 348 348 355 356 351 356 354 350 349 351 355 351 353 351 349 348 345 337 333 325 330 338 341 342 344 340 340
330 334 336 339 341 344 347 349 348 352 350 349 350 349 352 353 350 349 353 355 353 352 354 354 353 353 357 352 349 353 351 347 346 340 333 325 321 332 339 339 341 342 338
333 335 335 338 339 343 347 348 349 353 350 348 347 346 345 343 346 348 353 353 355 356 357 359 359 358 358 353 355 356 355 351 343 342 343 335 333 330 329 338 339 342 340
334 336 336 338 340 343 346 348 350 352 351 351 348 346 347 345 347 351 348 353 356 357 359 357 357 356 357 357 354 352 354 352 345 340 334 333 335 337 331 329 333 338 340
334 337 339 340 340 342 346 348 348 349 352 349 349 351 344 346 344 343 347 351 357 358 358 359 359 358 357 355 354 351 355 353 349 345 340 337 336 336 335 331 333 331 335
334 336 339 340 340 340 344 347 347 348 353 353 349 350 353 348 344 348 353 352 349 352 355 356 357 358 357 356 356 356 357 356 350 347 346 343 340 341 338 334 331 329 332
333 335 339 342 342 340 343 345 348 347 352 354 353 352 352 355 354 346 351 351 352 350 351 356 358 358 358 357 356 356 359 355 352 350 349 347 342 341 339 335 331 326 326
332 334 339 342 343 343 341 343 348 348 350 353 357 356 354 353 354 357 356 356 354 357 355 360 359 359 360 360 357 357 357 353 351 349 346 345 345 344 342 339 333 328 320
331 334 337 341 344 344 344 343 346 350 351 353 352 357 358 356 355 352 351 353 354 352 353 353 360 362 362 360 358 358 346 335 335 343 345 344 344 343 340 338 335 332 326
331 334 336 341 344 345 345 345 348 349 352 354 355 352 355 358 358 357 356 356 354 356 357 353 353 358 360 359 358 352 337 335 335 336 343 341 343 340 340 337 335 329 326
335 335 336 339 342 343 344 345 347 351 353 355 356 357 355 356 358 359 360 358 357 359 357 361 362 357 359 358 357 342 338 336 334 335 336 340 345 338 340 333 327 322 321
333 337 335 337 339 341 342 343 344 353 355 357 356 356 357 358 357 358 360 361 360 358 358 361 360 361 361 359 355 340 339 341 337 336 335 343 338 331 327 324 317 314 312
329 336 336 336 337 338 339 342 343 345 355 357 356 356 357 358 360 361 361 362 363 362 362 363 363 363 362 361 350 342 339 339 338 340 336 329 326 325 315 311 310 308 306
331 334 336 336 335 337 338 340 342 343 351 354 355 355 356 359 360 361 362 363 364 365 365 365 364 363 362 362 347 343 339 339 339 329 322 317 322 324 318 310 309 307 305
338 336 340 339 339 340 341 342 341 342 346 353 353 355 355 356 360 361 362 363 365 366 365 363 363 361 363 341 339 343 339 340 329 320 318 319 320 321 322 322 320 311 305
343 344 344 342 343 344 344 343 344 346 346 349 351 354 357 356 358 363 364 364 363 364 364 363 363 355 345 333 334 340 344 338 331 326 324 321 323 317 313 318 319 318 318
341 346 348 350 351 352 350 348 352 348 353 349 352 354 358 360 363 362 363 363 364 363 361 361 355 345 337 329 330 338 345 337 328 322 313 311 310 313 317 313 312 311 310
335 336 345 350 350 352 355 354 354 355 356 357 356 359 362 363 363 363 362 363 363 361 360 354 346 340 334 324 329 332 327 324 318 314 311 309 307 315 318 312 311 309 311
336 335 338 340 348 350 355 351 353 355 353 358 361 364 364 364 363 363 363 363 360 356 355 346 343 335 336 321 323 325 321 313 308 305 304 313 306 310 312 310 308 306 305
344 341 337 336 339 348 354 351 349 353 356 360 363 365 365 364 364 364 363 357 351 351 350 347 347 341 333 329 321 322 321 313 307 305 302 302 309 306 306 308 303 302 302
347 351 343 338 343 344 346 351 353 354 361 362 363 365 365 366 365 363 357 351 351 348 347 346 341 334 326 321 321 320 320 318 310 305 302 301 305 303 306 304 307 308 309
341 346 348 347 347 346 348 350 358 362 361 362 363 363 363 364 364 356 350 349 350 347 345 343 332 322 317 316 314 315 315 314 308 305 305 304 303 304 307 308 308 310 308
337 343 348 351 352 356 355 356 362 362 363 361 361 361 362 361 357 352 349 349 348 345 343 339 329 320 318 313 314 313 312 310 308 309 304 304 307 309 309 309 311 311 307
332 340 345 353 355 356 357 359 364 362 360 360 359 360 358 354 348 335 342 348 348 343 341 340 334 321 318 317 312 309 307 305 305 307 305 303 303 304 307 306 306 308 310
330 333 338 340 352 354 356 361 361 361 359 358 359 355 350 337 334 333 325 307 309 314 317 320 331 329 314 306 305 304 303 302 305 307 306 304 305 308 307 307 307 305 308
Wind_Speed
15 16 16 16 16 15 15 13 13 12 9 4 3 2 3 4 3 2 7 7 6 7 5 3 3 3 3 2 4 1 3 2 2 2 4 3 1 1 4 4 4 0 3
17 17 16 18 18 16 15 15 12 14 10 7 4 3 3 4 4 2 7 8 7 6 5 5 4 2 1 2 3 1 1 1 1 1 1 4 5 5 4 4 2 4 2
20 20 18 18 18 17 16 15 12 15 12 7 5 3 2 2 2 3 4 5 7 7 7 6 5 4 1 3 2 3 3 2 1 1 4 3 2 2 3 4 4 4 1
20 19 20 19 21 19 17 15 12 12 9 9 6 8 7 4 3 4 3 6 7 7 7 6 5 5 3 3 3 2 4 4 3 1 2 1 1 3 4 2 3 2 3
21 21 22 21 20 19 18 16 15 12 13 10 9 7 6 4 3 3 4 5 6 7 6 7 7 7 5 5 5 4 3 2 3 3 1 1 2 3 2 4 5 3 4
23 22 21 19 18 19 18 16 17 15 12 13 11 8 9 7 4 5 4 4 4 6 7 9 8 6 5 5 5 5 4 5 4 2 3 4 3 3 3 2 3 3 6
23 21 22 21 19 21 20 17 19 16 15 14 14 13 9 8 8 7 4 3 3 2 7 7 7 4 6 6 6 3 4 3 1 2 4 3 3 1 0 1 2 2 3
21 22 24 23 22 21 22 21 20 18 17 15 15 12 10 7 6 8 4 4 3 4 4 8 8 8 7 6 6 2 3 3 1 4 4 3 2 0 1 1 1 3 2
15 23 22 23 23 21 21 23 20 19 18 18 13 14 12 10 9 7 5 5 6 4 6 6 7 6 7 7 6 3 3 5 4 4 4 2 1 2 1 1 2 4 1
15 20 21 23 21 22 19 20 20 21 18 17 16 12 14 13 11 6 7 8 5 6 7 6 7 7 7 6 6 5 7 6 1 2 4 4 3 1 1 2 1 2 3
18 22 21 21 22 21 19 18 17 20 18 18 16 15 13 11 11 10 11 7 10 11 7 8 7 8 7 7 7 6 6 13 14 3 5 6 4 2 3 3 3 5 3
22 22 23 21 21 22 19 18 16 18 18 17 15 15 14 12 12 12 11 12 12 6 6 7 7 6 4 6 7 9 11 15 16 5 6 6 2 2 5 5 6 5 4
19 22 20 21 21 20 19 17 15 16 17 16 16 14 13 13 13 12 12 10 7 7 7 6 6 6 6 5 4 10 10 7 2 2 5 3 4 6 6 6 5 4 4
10 19 19 20 19 18 18 16 16 15 17 16 16 16 15 14 12 12 10 9 8 6 6 7 6 7 7 6 5 8 8 6 3 1 3 6 7 8 8 6 6 5 5
7 16 18 17 17 15 16 16 16 15 15 17 16 16 14 13 12 11 10 8 7 6 6 6 6 6 6 4 8 9 9 8 8 7 6 6 11 13 9 6 6 5 4
6 17 19 18 17 16 16 16 15 14 15 16 16 15 13 10 10 11 8 7 6 6 6 6 6 6 1 15 14 10 7 8 10 9 8 7 11 11 13 12 8 8 5
7 13 17 18 16 15 15 16 15 12 13 14 14 13 13 13 11 7 7 6 7 6 6 6 5 6 7 15 13 11 7 10 8 9 6 7 5 8 7 6 7 7 6
7 8 9 10 10 10 11 11 11 13 12 13 12 12 11 10 7 7 7 6 5 6 5 5 9 9 6 14 12 12 11 10 10 10 8 8 7 6 6 6 6 3 1
8 7 3 8 8 9 8 9 10 10 12 12 12 12 11 10 8 8 8 5 6 5 4 9 9 11 7 10 14 16 12 12 11 9 7 7 7 6 8 7 5 5 5
6 8 7 6 7 8 9 9 9 9 10 10 11 11 11 11 10 8 7 5 6 8 9 8 8 11 9 8 17 15 10 12 7 6 7 10 6 7 9 7 5 5 3
9 8 8 5 3 4 8 9 8 9 8 8 8 9 10 11 10 9 6 8 9 11 10 11 9 9 8 7 15 15 9 9 7 6 4 3 5 8 9 8 4 1 2
14 13 7 5 5 2 7 6 8 7 8 9 9 10 11 9 9 11 9 11 11 12 11 11 9 7 5 6 11 14 13 12 10 7 4 4 5 7 7 4 5 8 4
11 11 10 8 7 3 6 6 5 8 8 10 10 10 10 10 12 13 12 9 11 9 10 9 9 6 4 5 12 13 17 16 8 6 7 8 7 7 5 7 9 8 5
10 10 13 8 8 6 6 6 6 7 10 12 12 12 11 12 11 9 8 9 9 10 9 10 10 8 5 6 8 9 11 15 10 10 5 5 4 2 3 4 6 4 4
8 9 10 9 9 6 5 6 8 10 11 13 12 10 10 12 11 7 4 9 8 9 11 10 10 11 9 7 10 12 9 8 9 7 3 2 2 2 2 3 4 5 5
10 9 11 10 12 8 5 7 9 12 13 12 10 10 9 8 9 8 7 16 9 8 13 13 11 7 11 16 16 15 15 15 15 4 3 3 2 3 4 4 3 2 4
Wind_Direction
180 169 163 157 161 161 156 168 160 172 171 172 188 213 231 255 271 133 167 180 193 197 187 245 317 325 321 299 230 261 55 6 13 43 327 326 279 291 299 335 141 6 241
178 173 172 160 168 167 164 172 164 173 178 176 184 182 194 242 230 206 178 192 187 170 189 210 242 247 307 317 267 161 114 51 70 135 72 342 339 338 342 2 35 243 341
183 177 175 166 166 171 173 171 172 174 180 172 174 222 256 265 241 274 173 210 185 189 201 204 219 247 232 284 285 238 144 199 347 30 128 352 262 315 305 329 315 322 283
185 178 178 171 172 176 175 173 166 168 178 176 174 195 219 214 227 214 208 195 189 199 204 209 206 221 216 247 258 228 207 147 170 45 50 94 216 255 312 304 304 352 263
184 181 181 177 174 172 177 176 174 169 181 185 189 202 217 220 220 267 218 209 215 203 198 208 223 225 206 217 240 265 226 142 132 161 149 18 284 270 244 305 307 304 299
185 181 181 177 176 175 175 177 179 186 177 192 206 200 211 221 223 251 263 258 194 202 208 214 216 219 205 207 235 248 137 187 156 157 168 168 182 271 286 277 288 299 309
183 177 176 182 178 176 178 177 183 188 185 188 205 214 221 211 218 231 222 237 236 202 229 219 221 202 206 198 221 226 170 215 136 177 232 179 221 187 291 295 304 331 315
181 181 178 181 184 179 178 181 183 190 188 190 202 212 213 219 223 231 223 236 235 235 214 223 215 209 190 203 223 184 195 103 79 309 283 291 318 232 78 213 272 329 345
209 183 179 180 184 185 180 182 181 189 192 195 192 206 212 213 222 231 211 207 230 244 273 219 207 212 190 196 204 168 154 64 8 287 302 299 332 23 267 248 156 142 34
220 186 182 181 182 185 182 180 180 186 191 195 204 203 207 215 220 215 234 239 240 239 250 253 210 208 203 198 182 173 120 101 353 345 330 325 294 10 351 60 100 125 142
214 182 181 179 177 180 184 182 175 184 190 194 197 208 213 208 209 213 228 227 235 235 229 243 244 225 193 183 193 147 152 98 306 357 345 314 314 24 51 61 38 64 78
187 178 178 172 175 178 181 185 177 179 188 192 197 203 208 211 211 215 219 227 237 235 221 222 232 244 216 184 205 126 108 144 235 302 349 292 37 51 61 64 62 55 47
177 175 172 172 173 175 177 179 178 175 184 188 195 202 206 206 214 217 221 225 228 221 223 216 225 233 227 205 201 136 166 195 144 23 280 258 96 63 76 65 58 46 39
138 167 169 170 170 169 173 176 181 177 180 187 193 200 206 208 208 212 216 216 217 208 208 217 216 221 227 232 101 130 131 149 129 45 81 77 91 100 87 76 65 57 53
164 167 167 166 168 164 167 173 180 180 175 185 193 202 204 205 208 211 210 209 201 205 199 209 217 223 221 202 122 127 149 140 104 114 101 99 97 93 106 97 74 81 69
136 160 152 158 164 165 167 170 176 177 176 184 194 198 200 196 196 206 200 194 197 192 191 203 220 230 200 121 130 136 132 129 124 125 110 93 84 87 90 98 128 133 115
123 135 147 156 162 165 167 174 176 173 178 183 193 190 191 200 203 179 176 186 192 185 189 204 205 92 111 130 133 126 127 120 131 122 110 92 80 84 100 122 113 102 109
77 115 128 137 147 153 161 159 155 176 172 186 188 188 184 185 165 167 175 184 169 169 174 162 101 106 123 129 129 113 108 98 90 98 104 99 78 50 114 124 105 113 311
75 46 119 139 138 145 151 147 161 163 176 181 182 178 172 163 159 163 166 163 137 139 121 107 118 118 127 127 113 104 96 96 90 86 86 91 81 35 94 90 95 53 17
34 45 45 60 135 170 160 157 170 173 187 177 177 167 160 159 157 152 152 137 112 107 107 100 103 117 126 108 114 112 114 104 101 80 71 77 98 73 71 85 87 60 347
359 23 21 43 99 148 161 174 184 195 183 155 150 154 153 149 147 139 127 111 114 107 111 110 110 105 119 123 125 118 120 127 124 113 94 81 104 87 80 96 83 214 297
5 1 5 352 320 89 148 178 196 192 162 153 149 145 144 146 140 129 117 123 121 116 119 119 102 97 96 102 133 131 126 132 125 131 135 156 119 85 92 72 1 354 81
0 351 349 337 335 310 184 191 215 165 149 141 140 137 135 133 133 130 128 128 120 128 131 126 119 111 85 82 124 119 119 117 112 133 152 152 120 71 31 10 20 33 60
352 342 336 339 324 283 181 175 172 141 131 133 137 144 135 130 129 125 135 132 137 140 139 136 128 129 113 106 111 109 102 102 108 126 138 142 106 79 6 29 33 34 61
334 337 327 328 323 251 188 174 140 133 134 137 142 133 133 133 125 94 124 131 144 149 151 148 143 146 148 161 141 137 132 134 147 129 102 94 77 72 33 53 54 46 45
354 343 329 317 305 272 175 138 139 144 143 147 141 143 132 126 125 126 100 45 63 107 138 135 142 139 139 141 138 131 135 142 147 98 130 144 173 173 156 120 78 40 46